QB50P2

Last updated on Mon Sep 21 2026 00:03:44 GMT+0000 (Coordinated Universal Time)

1 40032U 14033Y 26263.22979355 .00004674 00000+0 24555-3 0 9995 2 40032 98.0816 266.1395 0006615 198.5854 161.5137 15.16234273667066
UTC large
Height (km)
Speed (km/s)
/
Latitude / Longitude
Inclination (degrees)
Orbital Period (minutes)
Azimuth
Elevation
Range (km)
Doppler Factor

Next 0 passes for location: London (51.5072 / 0.1276)

No passes found over London.
QB50P2